Список аэропортов
Фактическая погода:

26 апреля, 12:00
Температура: +10°C (+8.5*)
Ветер: южный 3 м/с
Давление: *747 мм
разорв. обл.
150 м
разорв. обл.
кучево-дождевые 690 м
слаб. ливневый дождь
Время (МСК)Темп. СВетерВлажностьДавлениеОблачностьОсадки
09:00+9Ю, 4 м/с86%999 гПаоблачнодождь
10:00+9Ю, 4 м/с90%998 гПаоблачнодождь
11:00+9ЮВ, 3 м/с90%997 гПаоблачнодождь
12:00+10Ю, 4 м/с91%997 гПаоблачнодождь
13:00+10ЮЗ, 7 м/с90%997 гПаоблачносл. дождь
14:00+12З, 7 м/с81%997 гПаоблачно
15:00+11З, 8 м/с83%997 гПаоблачнодождь
16:00+11З, 7 м/с81%998 гПаоблачнодождь
17:00+9З, 11 м/с81%999 гПаоблачнодождь
18:00+9З, 10 м/с73%1001 гПаоблачно
19:00+9З, 10 м/с65%1002 гПаоблачно
20:00+9З, 9 м/с64%1003 гПаоблачно
21:00+8З, 7 м/с65%1004 гПамалооблачно
22:00+8З, 6 м/с68%1004 гПаясно
23:00+8З, 7 м/с69%1005 гПаясно
27 апреля
00:00+7З, 6 м/с71%1006 гПамалооблачно
01:00+7З, 5 м/с72%1006 гПамалооблачно
02:00+6З, 5 м/с76%1007 гПаясно
03:00+5З, 4 м/с83%1007 гПамалооблачно
04:00+4ЮЗ, 4 м/с90%1008 гПаясно
05:00+4ЮЗ, 3 м/с93%1008 гПамалооблачно
06:00+3ЮЗ, 4 м/с93%1009 гПаясно
07:00+5ЮЗ, 4 м/с83%1009 гПас прояснениями
08:00+7ЮЗ, 4 м/с73%1009 гПас прояснениями
09:00+9ЮЗ, 4 м/с69%1010 гПамалооблачно
10:00+11ЮЗ, 5 м/с65%1009 гПаоблачно
11:00+12ЮЗ, 6 м/с61%1009 гПас прояснениями
12:00+13З, 5 м/с56%1009 гПаоблачно
13:00+14З, 5 м/с53%1009 гПаоблачно
14:00+14З, 4 м/с51%1009 гПас прояснениями
15:00+14З, 4 м/с51%1008 гПаоблачно
16:00+14З, 4 м/с58%1008 гПаоблачносл. дождь
17:00+13З, 4 м/с63%1008 гПаоблачнодождь
18:00+13З, 4 м/с64%1009 гПас прояснениямисл. дождь
19:00+12З, 3 м/с67%1009 гПас прояснениямисл. дождь
20:00+10З, 3 м/с72%1009 гПаясно
21:00+9З, 3 м/с77%1010 гПаясно
22:00+8З, 2 м/с85%1011 гПаясно
23:00+6З, 2 м/с90%1011 гПаясно
28 апреля
00:00+6З, 3 м/с90%1011 гПаясно
01:00+5З, 2 м/с94%1011 гПаясно
02:00+4З, 2 м/с96%1012 гПаясно
03:00+3З, 2 м/с97%1011 гПаясно
04:00+3З, 3 м/с94%1012 гПаясно
05:00+3З, 3 м/с95%1012 гПаясно
06:00+3З, 3 м/с96%1013 гПамалооблачно
07:00+5СЗ, 4 м/с91%1013 гПаясно
08:00+7СЗ, 5 м/с80%1013 гПаясно
09:00+9СЗ, 6 м/с67%1014 гПамалооблачно